Weather observations for the past three days for
Seward
Metric (Imperial)
Date Time (akdt) Wind (kph) Vis. (km) Weather Sky Cond. Temperature (ºC) Relative Humidity Wind Chill (°C) Heat Index (°C) Pressure Precipitation (cm)
Air Dwpt 6 hour altimeter (cm) sea level (mb) 1 hr 3 hr 6 hr
Max. Min.
31 06:53 N 6 16.09 A Few Clouds FEW046 FEW070 6.7 4.4 85% 74.98 999.6
31 05:53 NW 9 16.09 A Few Clouds FEW065 6.1 4.4 89% 4 75.06 1000.5
31 04:53 N 7 16.09 Partly Cloudy SCT065 6.7 5 89% 6 75.11 1001.3
31 03:53 N 13 16.09 Fair CLR 8.3 5 15 8.3 80% 6 75.16 1002.0
31 02:53 N 15 16.09 Fair CLR 9.4 5.6 77% 7 75.21 1002.6
31 01:53 N 13 16.09 Fair CLR 10 5.6 74% 8 75.23 1003.0
31 00:53 N 11 16.09 Fair CLR 10.6 6.1 74% 75.29 1003.8
30 23:53 N 13 16.09 Fair CLR 12.2 6.1 67% 75.36 1004.5
30 22:53 N 15 16.09 Fair CLR 13.3 5.6 60% 75.39 1004.9
30 21:53 NE 15 16.09 Partly Cloudy SCT110 13.9 5 18.9 13.9 55% 75.39 1005.1
30 20:53 N 17 G 31 16.09 Mostly Cloudy BKN110 14.4 5 53% 75.44 1005.7
30 19:53 NE 13 16.09 Overcast OVC110 15 5 51% 75.46 1006.1
30 18:53 N 22 G 31 16.09 Mostly Cloudy BKN120 16.1 2.8 41% 75.54 1006.9
30 17:53 NW 22 G 39 16.09 Fair CLR 17.2 2.2 37% 75.59 1007.7
30 16:53 NW 26 G 41 16.09 Fair CLR 17.8 2.2 35% 75.64 1008.4
30 15:53 NW 15 G 33 16.09 Fair CLR 18.9 2.8 18.9 15 34% 75.67 1008.7
30 14:53 NW 15 G 31 16.09 Fair CLR 18.3 2.2 34% 75.72 1009.3
30 13:53 N 17 G 33 16.09 Fair CLR 18.3 1.7 33% 75.74 1009.9
30 12:53 N 20 G 39 16.09 Fair CLR 18.9 3.3 36% 75.79 1010.4
30 11:53 N 22 G 39 16.09 Fair CLR 17.8 3.9 40% 75.84 1011.1
30 10:53 N 22 16.09 Fair CLR 16.1 3.9 44% 75.87 1011.6
30 09:53 N 26 G 44 16.09 Fair CLR 15 2.8 15 12.2 44% 75.9 1011.8
30 08:53 NE 26 G 43 16.09 Fair CLR 13.3 2.8 49% 75.9 1011.9
30 07:53 N 26 G 48 16.09 Fair CLR 12.8 2.2 49% 75.9 1011.9
30 06:53 NE 24 G 41 16.09 Fair CLR 12.8 2.2 49% 75.84 1011.2
30 05:53 N 24 G 39 16.09 Fair CLR 12.8 2.2 49% 75.84 1011.1
30 04:53 N 15 G 35 16.09 Fair CLR 12.2 3.3 55% 75.87 1011.3
30 03:53 N 24 16.09 Fair CLR 12.8 4.4 16.1 12.2 57% 75.79 1010.6
30 02:53 N 22 G 37 16.09 Fair CLR 13.3 5 57% 75.77 1010.3
30 01:53 N 19 G 50 16.09 Fair CLR 13.9 5.6 58% 75.77 1010.0
30 00:53 NE 26 G 41 16.09 Fair CLR 13.9 6.1 60% 75.74 1009.7
29 23:53 N 20 G 33 16.09 Fair CLR 14.4 6.1 58% 75.69 1009.2
29 22:53 N 20 16.09 Fair CLR 14.4 6.1 58% 75.67 1008.8
29 21:53 N 17 G 41 16.09 Fair CLR 15.6 5.6 19.4 15.6 52% 75.62 1008.1
29 20:53 NW 30 G 59 16.09 Fair CLR 16.7 4.4 44% 75.57 1007.5
29 19:53 NW 31 G 61 16.09 Fair CLR 17.2 3.9 41% 75.51 1006.9
29 18:53 NW 33 G 57 16.09 Fair and Breezy CLR 18.3 3.3 37% 75.49 1006.3
29 17:53 NW 31 G 59 16.09 Fair CLR 18.9 3.3 36% 75.46 1006.1
29 16:53 NW 30 G 54 16.09 Fair CLR 19.4 2.8 33% 75.46 1005.9
29 15:53 NW 28 G 50 16.09 Fair CLR 19.4 5 19.4 13.9 39% 75.44 1005.7
29 14:53 NW 31 G 50 16.09 Fair CLR 19.4 6.1 42% 75.44 1005.7
29 13:53 NW 15 G 35 16.09 Fair CLR 19.4 6.7 44% 75.44 1005.7
29 12:53 N 19 G 37 16.09 Fair CLR 18.3 8.9 54% 75.46 1005.9
29 11:53 N 19 G 35 16.09 Fair CLR 17.2 10 63% 75.46 1006.0
29 10:53 N 20 G 35 16.09 Partly Cloudy SCT055 15.6 8.9 65% 75.49 1006.5
29 09:53 NE 20 G 35 16.09 A Few Clouds FEW055 13.9 9.4 13.9 10 74% 75.49 1006.4
29 08:53 N 19 16.09 Mostly Cloudy BKN050 11.7 9.4 86% 75.49 1006.3
29 07:53 N 17 16.09 Mostly Cloudy BKN050 10.6 9.4 92% 75.46 1006.0
29 06:53 N 13 16.09 Overcast OVC047 10.6 9.4 92% 75.46 1006.0
29 05:53 N 13 16.09 Overcast OVC050 11.1 10 93% 75.44 1005.8
29 04:53 N 13 16.09 Overcast FEW037 BKN060 OVC120 10.6 10 96% 75.44 1005.7
29 03:53 N 6 16.09 Overcast OVC029 10 10 11.7 10 100% 75.41 1005.4 0.08
29 02:53 N 7 16.09 Overcast BKN025 OVC032 10.6 10 96% 75.44 1005.8
29 01:53 Calm 14.48 Light Rain BKN020 OVC025 10.6 10 96% 75.46 1006.2 0.03
29 00:53 Calm 16.09 Overcast BKN016 OVC021 11.1 10.6 97% 75.46 1006.2 0.03 0.05
28 23:53 Calm 6.44 Light Rain Fog/Mist OVC013 11.1 11.1 100% 75.49 1006.3 0.03
28 22:53 Calm 14.48 Light Rain OVC003 11.1 11.1 100% 75.49 1006.5
28 21:53 SE 7 16.09 Overcast OVC013 10.6 10.6 12.8 10.6 100% 75.51 1006.7 0.03 0.05
28 20:53 S 6 16.09 Overcast OVC012 11.7 11.1 96% 75.57 1007.3
28 19:53 SE 9 14.48 Overcast FEW016 OVC029 11.7 11.1 96% 75.57 1007.5
28 18:53 S 17 9.66 Light Rain Fog/Mist OVC029 11.7 11.7 100% 75.62 1007.9 0.03 0.03
28 17:53 S 17 12.87 Light Rain OVC027 12.2 11.1 93% 75.64 1008.3
28 16:53 SE 15 16.09 Overcast FEW014 OVC019 12.8 10.6 87% 75.64 1008.5
28 15:53 S 9 16.09 Overcast FEW019 BKN026 OVC034 12.2 11.1 12.8 10.6 93% 75.69 1008.9 0.23
28 14:53 Calm 12.87 Overcast FEW005 OVC011 11.7 11.1 96% 75.72 1009.6 0.03
28 13:53 Calm 4.02 Light Rain Fog/Mist BKN009 OVC016 10.6 10 96% 75.82 1010.8 0.03
28 12:53 S 6 16.09 Overcast BKN015 BKN020 OVC033 11.7 10.6 93% 75.82 1010.9 0.18
28 11:53 Calm 16.09 Overcast OVC015 11.7 10.6 93% 75.82 1010.7
28 10:53 Calm 14.48 Light Rain BKN009 OVC013 11.7 11.1 96% 75.84 1011.1 0.18
28 09:53 SE 6 4.83 Rain Fog/Mist BKN008 OVC035 11.1 10.6 11.7 10.6 97% 75.9 1011.9 0.25 0.74
28 08:53 S 11 8.05 Light Rain Fog/Mist SCT028 OVC036 11.1 10 93% 75.9 1011.8 0.08
Date Time (akdt) Wind (kph) Vis. (km) Weather Sky Cond. Air Dwpt Max. Min. Relative Humidity Wind Chill (°C) Heat Index (°C) altimeter (cm) sea level (mb) 1 hr 3 hr 6 hr
6 hour
Temperature (ºC) Pressure Precipitation (cm)